D8FBW KPHL-KJFK

Flight info

Callsign D8FBW
Flight time N/A
Altitude 13000
Route DITCH T416 WINKK V44 CAMRN
Aircraft A388/J-SADE2E3FGHIJ3J4J5M1RWXY/LB1D1

Departure

Time N/A
Airport Philadelphia International Airport (KPHL)

Arrival

Time 2026-04-30 18:05
Airport John F. Kennedy International Airport (KJFK)
Time Latitude Longitude Altitude Speed Heading
2026-04-30 17:39 39.81294 -74.48691 13006 ft 423 kts 85°
2026-04-30 17:41 39.81714 -74.18870 12121 ft 391 kts 92°
2026-04-30 17:42 39.81696 -74.11860 11636 ft 385 kts 92°
2026-04-30 17:42 39.82152 -74.01553 10998 ft 381 kts 68°
2026-04-30 17:43 39.85451 -73.96416 10992 ft 371 kts 25°
2026-04-30 17:44 39.92456 -73.92493 10990 ft 368 kts 20°
2026-04-30 17:44 39.99296 -73.87874 10995 ft 370 kts 24°
2026-04-30 17:46 40.11350 -73.83298 10974 ft 361 kts
2026-04-30 17:47 40.20326 -73.77443 10626 ft 350 kts 27°
2026-04-30 17:48 40.28149 -73.71253 9843 ft 315 kts 27°
2026-04-30 17:48 40.33705 -73.66896 8807 ft 305 kts 27°
2026-04-30 17:49 40.40880 -73.61410 7434 ft 293 kts 27°
2026-04-30 17:50 40.47836 -73.56262 6154 ft 281 kts 27°
2026-04-30 17:51 40.52901 -73.52551 5134 ft 274 kts 27°
2026-04-30 17:52 40.57829 -73.48917 4165 ft 268 kts 27°
2026-04-30 17:53 40.65899 -73.43020 3990 ft 267 kts 27°
2026-04-30 17:54 40.72399 -73.38363 3989 ft 265 kts 17°
2026-04-30 17:55 40.79296 -73.39399 3987 ft 227 kts 347°
2026-04-30 17:56 40.84036 -73.43603 3317 ft 214 kts 307°
2026-04-30 17:57 40.85335 -73.48611 2908 ft 171 kts 277°
2026-04-30 17:58 40.85420 -73.53370 1989 ft 178 kts 257°
2026-04-30 17:59 40.83428 -73.59267 1987 ft 179 kts 237°
2026-04-30 18:00 40.79711 -73.63549 1991 ft 185 kts 211°
2026-04-30 18:00 40.76422 -73.66128 2008 ft 182 kts 213°
2026-04-30 18:01 40.74253 -73.67836 2006 ft 181 kts 213°
2026-04-30 18:02 40.71004 -73.70393 1556 ft 181 kts 213°
2026-04-30 18:02 40.67856 -73.72865 807 ft 155 kts 212°
2026-04-30 18:03 40.65415 -73.74792 236 ft 132 kts 209°
2026-04-30 18:04 40.63528 -73.76272 28 ft 51 kts 211°
2026-04-30 18:05 40.63258 -73.76588 28 ft 3 kts 240°
2026-04-30 18:06 40.63287 -73.76829 27 ft 27 kts 312°
2026-04-30 18:07 40.63659 -73.77634 31 ft 0 kts 304°
2026-04-30 18:08 40.63924 -73.77818 28 ft 28 kts 329°
2026-04-30 18:09 40.64213 -73.78034 29 ft 16 kts 248°
2026-04-30 18:10 40.64192 -73.78073 28 ft 0 kts 227°